Observations for Trim Patrick St
| Time | AQI | Temp °C | Hum % | Pres Pa | CO μg/m³ | H₂S μg/m³ | NO μg/m³ | NO₂ μg/m³ | O₃ μg/m³ | SO₂ μg/m³ | PM1 μg/m³ | PM2.5 μg/m³ | PM10 μg/m³ |
|---|---|---|---|---|---|---|---|---|---|---|---|---|---|
| Wednesday 5 August 2026 | |||||||||||||
| 13:59 | 2 | 20.8 | 59 | 74,764 | 0 | 13.39 | 3.04 | 27.03 | 74.66 | 3.44 | 2 | 5.84 | 6.42 |
| 13:58 | 2 | 20.8 | 58 | 74,795 | 0 | 12.65 | 3.11 | 25.84 | 70.15 | 3.06 | 2 | 5.91 | 6.5 |
| 13:57 | 2 | 20.7 | 58 | 74,825 | 0 | 12.49 | 3.05 | 24.24 | 75.35 | 2.9 | 2 | 5.93 | 6.53 |
| 13:56 | 2 | 20.6 | 58 | 74,866 | 0 | 13.97 | 2.78 | 18.38 | 76.84 | 3.61 | 2 | 5.94 | 6.53 |
| 13:55 | 2 | 20.6 | 59 | 74,895 | 0 | 14.52 | 2.75 | 32.37 | 75.05 | 2.65 | 2 | 5.87 | 6.46 |
| 13:54 | 2 | 20.5 | 59 | 74,874 | 0 | 13.44 | 2.02 | 16.67 | 77.04 | 3.14 | 2 | 5.85 | 6.43 |
| 13:53 | 2 | 20.5 | 61 | 74,880 | 0 | 19.55 | 1.63 | 22.12 | 87.93 | 5.18 | 2 | 5.74 | 6.32 |
| 13:52 | 2 | 20.4 | 59 | 74,864 | 0 | 16.08 | 1.35 | 22 | 83.31 | 3.36 | 2 | 5.87 | 6.46 |
| 13:51 | 2 | 20.3 | 59 | 74,784 | 0 | 13.52 | 1.42 | 12.99 | 90.73 | 3.83 | 2 | 5.85 | 6.44 |
| 13:50 | 2 | 20.4 | 59 | 74,731 | 0 | 16.05 | 1.36 | 12.35 | 94.11 | 4.82 | 2 | 5.86 | 6.45 |
| 13:49 | 2 | 20.4 | 58 | 74,625 | 0 | 14.1 | 1.25 | 15.92 | 87.21 | 3.93 | 2 | 5.94 | 6.53 |
| 13:48 | 2 | 20.5 | 58 | 74,499 | 0 | 13.34 | 1.26 | 9.18 | 94.48 | 4.59 | 2 | 5.93 | 6.53 |
| 13:47 | 2 | 20.6 | 60 | 74,361 | 0 | 13.55 | 1.4 | 12.98 | 93.8 | 4.47 | 2 | 5.8 | 6.38 |
| 13:46 | 2 | 20.7 | 57 | 74,161 | 0 | 14.18 | 1.55 | 10.36 | 99.4 | 5.62 | 2 | 5.97 | 6.56 |
| 13:45 | 2 | 20.8 | 56 | 73,980 | 0 | 16.21 | 1.53 | 12.03 | 99.67 | 5.98 | 2 | 6.02 | 6.62 |
| 13:42 | 2 | 21.4 | 54 | 73,123 | 0 | 4.85 | 2.15 | 4.07 | 66.1 | 5.55 | 2 | 6.17 | 6.78 |
| 13:41 | 2 | 21.7 | 54 | 72,719 | 0 | 8.41 | 2.42 | 11.47 | 99.92 | 5.13 | 2 | 6.17 | 6.78 |
| 13:39 | 2 | 22.2 | 53 | 71,664 | 0 | 5.7 | 2.58 | 8.54 | 89.14 | 5.93 | 2 | 6.22 | 6.84 |
| 13:37 | 2 | 22.8 | 51 | 70,225 | 0 | 8.24 | 2.42 | 11.62 | 106.36 | 6.65 | 2 | 6.36 | 6.99 |
| 13:34 | 2 | 23.4 | 48 | 69,389 | 0 | 3.34 | 2.48 | 13.56 | 87.86 | 5.79 | 2 | 6.51 | 7.16 |